sat.trackr.live / text

‹ back to catalog

STARLINK-5992

NORAD 56328 · 2023-058M

PAYLOAD ACTIVE UNKNOWN

§ Identity

Operator
Country
US
Launch date
2023-04-27
Launch site
AFWTR
Launch vehicle
Mass (kg)
RCS (m²)

Purposes: comms

External: N2YO · Heavens-Above · Gunter

§ Orbital elements

Epoch: 2026-09-20T23:13:22.476000Z

Period
93.91 min
Inclination
97.2836°
Eccentricity
0.0002312
Mean motion
15.33443572 rev/d
Perigee alt
464.0 km
Apogee alt
467.1 km
Semi-major
6,843.7 km
B*
2.9788e-5
RAAN
260.6679°
Arg perigee
94.1177°
Mean anomaly
266.0330°
Rev number
18,770

§ Raw data

STARLINK-59921 56328U 23058M   26263.96762125  .00000887  00000+0  29788-4 0  99992 56328  97.2836 260.6679 0002312  94.1177 266.0330 15.33443572187704

JSON: /api/v1/satellites/56328 · /tle

For live sub-satellite position, see the globe view (requires WebGL).

§ Visibility from observer

Set your observer location to see the next 7 days of passes ≥ 10°. The values pass through the URL so the page stays shareable.

No JS? Fill the form by hand. The geolocation button needs JavaScript.